When you browse on this site, cookies collect data to enhance your experience and personalize the content and advertising you see.
Visit our Privacy Policy to learn more. By continuing to use the site, you agree to this use of cookies and data.
  • En España
  • Lista de países
  • Para 7 días
  • Temperatura del agua
  • Mapa Satelital
  • El tiempo en el mapa
  • Informadores
  • user-avatar
    Iniciar sesión

    Tiempo cada hora Debricy

    Hoy, 27 Mayo, Lunes

    Tiempo Temperatura Precipitaciones Viento Presión Humedad
    00:00 +9°C° 0 mm 3 mps 738 mmHg 88%
    01:00 +9°C° 0 mm 3 mps 738 mmHg 89%
    02:00 +9°C° 0 mm 3 mps 739 mmHg 91%
    03:00 +8°C° 0 mm 4 mps 739 mmHg 90%
    04:00 +8°C° 0 mm 4 mps 739 mmHg 89%
    05:00 +8°C° 0 mm 4 mps 739 mmHg 88%
    06:00 +10°C° 0 mm 4 mps 739 mmHg 87%
    07:00 +11°C° 0 mm 4 mps 739 mmHg 86%
    08:00 +12°C° 0 mm 4 mps 739 mmHg 85%
    09:00 +14°C° 0 mm 5 mps 739 mmHg 80%
    10:00 +16°C° 0 mm 6 mps 740 mmHg 75%
    11:00 +19°C° 0 mm 6 mps 740 mmHg 70%
    12:00 +19°C° 0.2 mm 6 mps 740 mmHg 70%
    13:00 +20°C° 0.2 mm 6 mps 740 mmHg 71%
    14:00 +20°C° 0.2 mm 6 mps 740 mmHg 71%
    15:00 +20°C° 0.7 mm 5 mps 740 mmHg 75%
    16:00 +20°C° 0.7 mm 5 mps 740 mmHg 78%
    17:00 +20°C° 0.7 mm 4 mps 740 mmHg 82%
    18:00 +19°C° 0.4 mm 4 mps 740 mmHg 84%
    19:00 +17°C° 0.4 mm 3 mps 740 mmHg 86%
    20:00 +16°C° 0.4 mm 3 mps 740 mmHg 88%
    21:00 +16°C° 0 mm 3 mps 740 mmHg 90%
    22:00 +14°C° 0 mm 3 mps 741 mmHg 91%
    23:00 +13°C° 0 mm 3 mps 741 mmHg 93%

    Mañana, 28 Mayo, Martes

    Tiempo Temperatura Precipitaciones Viento Presión Humedad
    00:00 +14°C° 0 mm 2 mps 741 mmHg 94%
    01:00 +14°C° 0 mm 2 mps 741 mmHg 94%
    02:00 +14°C° 0 mm 2 mps 741 mmHg 95%
    03:00 +14°C° 0 mm 2 mps 741 mmHg 95%
    04:00 +14°C° 0 mm 2 mps 741 mmHg 95%
    05:00 +15°C° 0 mm 2 mps 741 mmHg 95%
    06:00 +16°C° 0 mm 3 mps 741 mmHg 91%
    07:00 +18°C° 0 mm 3 mps 741 mmHg 87%
    08:00 +20°C° 0 mm 3 mps 741 mmHg 83%
    09:00 +21°C° 0.2 mm 4 mps 741 mmHg 79%
    10:00 +22°C° 0.2 mm 5 mps 741 mmHg 74%
    11:00 +24°C° 0.2 mm 6 mps 741 mmHg 70%
    12:00 +24°C° 0.3 mm 6 mps 741 mmHg 70%
    13:00 +24°C° 0.3 mm 6 mps 741 mmHg 71%
    14:00 +24°C° 0.3 mm 6 mps 741 mmHg 71%
    15:00 +24°C° 0 mm 6 mps 740 mmHg 70%
    16:00 +24°C° 0 mm 6 mps 740 mmHg 68%
    17:00 +24°C° 0 mm 6 mps 740 mmHg 67%
    18:00 +23°C° 0 mm 6 mps 740 mmHg 70%
    19:00 +22°C° 0 mm 5 mps 740 mmHg 73%
    20:00 +21°C° 0 mm 5 mps 740 mmHg 76%
    21:00 +20°C° 0 mm 5 mps 741 mmHg 76%
    22:00 +20°C° 0 mm 5 mps 741 mmHg 76%
    23:00 +20°C° 0 mm 5 mps 741 mmHg 76%

    Pasado mañana, 29 Mayo, Miércoles

    Tiempo Temperatura Precipitaciones Viento Presión Humedad
    00:00 +19°C° 0 mm 5 mps 741 mmHg 79%
    01:00 +19°C° 0 mm 5 mps 741 mmHg 82%
    02:00 +17°C° 0 mm 5 mps 741 mmHg 84%
    03:00 +17°C° 0 mm 5 mps 741 mmHg 85%
    04:00 +17°C° 0 mm 5 mps 741 mmHg 85%
    05:00 +17°C° 0 mm 5 mps 741 mmHg 85%
    06:00 +19°C° 0 mm 6 mps 741 mmHg 81%
    07:00 +20°C° 0 mm 6 mps 741 mmHg 76%
    08:00 +22°C° 0 mm 7 mps 741 mmHg 71%
    09:00 +22°C° 0 mm 7 mps 741 mmHg 68%
    10:00 +23°C° 0 mm 7 mps 742 mmHg 66%
    11:00 +24°C° 0 mm 7 mps 742 mmHg 63%
    12:00 +24°C° 0 mm 6 mps 742 mmHg 66%
    13:00 +23°C° 0 mm 5 mps 742 mmHg 69%
    14:00 +23°C° 0 mm 5 mps 742 mmHg 72%
    15:00 +23°C° 0 mm 4 mps 742 mmHg 74%
    16:00 +23°C° 0 mm 4 mps 742 mmHg 75%
    17:00 +23°C° 0 mm 4 mps 742 mmHg 76%
    18:00 +22°C° 0.4 mm 4 mps 742 mmHg 80%
    19:00 +21°C° 0.4 mm 4 mps 742 mmHg 83%
    20:00 +20°C° 0.4 mm 4 mps 742 mmHg 86%
    21:00 +20°C° 1.4 mm 3 mps 742 mmHg 89%
    22:00 +19°C° 1.4 mm 3 mps 742 mmHg 92%
    23:00 +18°C° 1.4 mm 2 mps 742 mmHg 94%

    30 Mayo, Jueves

    Tiempo Temperatura Precipitaciones Viento Presión Humedad
    00:00 +18°C° 0 mm 2 mps 742 mmHg 95%
    01:00 +18°C° 0 mm 3 mps 742 mmHg 95%
    02:00 +18°C° 0 mm 3 mps 742 mmHg 95%
    03:00 +18°C° 0.2 mm 3 mps 742 mmHg 95%
    04:00 +18°C° 0.2 mm 2 mps 742 mmHg 96%
    05:00 +18°C° 0.2 mm 2 mps 743 mmHg 96%
    06:00 +19°C° 0.2 mm 2 mps 743 mmHg 93%
    07:00 +20°C° 0.2 mm 2 mps 743 mmHg 90%
    08:00 +21°C° 0.2 mm 2 mps 743 mmHg 87%
    09:00 +23°C° 1.1 mm 2 mps 743 mmHg 83%
    10:00 +24°C° 1.1 mm 2 mps 743 mmHg 79%
    11:00 +25°C° 1.1 mm 2 mps 743 mmHg 76%
    12:00 +25°C° 0.8 mm 2 mps 743 mmHg 75%
    13:00 +25°C° 0.8 mm 2 mps 743 mmHg 74%
    14:00 +25°C° 0.8 mm 2 mps 744 mmHg 74%
    15:00 +24°C° 1.2 mm 2 mps 743 mmHg 78%
    16:00 +24°C° 1.2 mm 1 mps 743 mmHg 82%
    17:00 +23°C° 1.2 mm 1 mps 743 mmHg 86%
    18:00 +22°C° 0.7 mm 1 mps 743 mmHg 87%
    19:00 +21°C° 0.7 mm 1 mps 744 mmHg 89%
    20:00 +20°C° 0.7 mm 1 mps 744 mmHg 91%
    21:00 +19°C° 0.1 mm 1 mps 744 mmHg 92%
    22:00 +19°C° 0.1 mm 1 mps 744 mmHg 93%
    23:00 +18°C° 0.1 mm 1 mps 744 mmHg 95%

    31 Mayo, Viernes

    Tiempo Temperatura Precipitaciones Viento Presión Humedad
    00:00 +18°C° 0 mm 1 mps 744 mmHg 95%
    01:00 +18°C° 0 mm 1 mps 744 mmHg 95%
    02:00 +16°C° 0 mm 1 mps 743 mmHg 96%
    03:00 +18°C° 0 mm 1 mps 743 mmHg 96%
    04:00 +18°C° 0 mm 1 mps 743 mmHg 96%
    05:00 +18°C° 0 mm 1 mps 743 mmHg 96%
    06:00 +20°C° 0.1 mm 1 mps 743 mmHg 92%
    07:00 +21°C° 0.1 mm 1 mps 743 mmHg 88%
    08:00 +23°C° 0.1 mm 2 mps 743 mmHg 84%
    09:00 +24°C° 0.4 mm 3 mps 743 mmHg 77%
    10:00 +25°C° 0.4 mm 4 mps 743 mmHg 70%
    11:00 +27°C° 0.4 mm 5 mps 743 mmHg 63%
    12:00 +27°C° 0.4 mm 5 mps 743 mmHg 65%
    13:00 +27°C° 0.4 mm 5 mps 742 mmHg 67%
    14:00 +27°C° 0.4 mm 5 mps 742 mmHg 68%
    15:00 +26°C° 0.7 mm 4 mps 742 mmHg 74%
    16:00 +25°C° 0.7 mm 4 mps 742 mmHg 80%
    17:00 +24°C° 0.7 mm 3 mps 742 mmHg 85%
    18:00 +22°C° 0.1 mm 3 mps 742 mmHg 88%
    19:00 +21°C° 0.1 mm 3 mps 741 mmHg 90%
    20:00 +20°C° 0.1 mm 3 mps 741 mmHg 92%
    21:00 +20°C° 1 mm 3 mps 741 mmHg 92%
    22:00 +20°C° 1 mm 3 mps 741 mmHg 92%
    23:00 +19°C° 1 mm 3 mps 741 mmHg 92%

    1 Junio, Sábado

    Tiempo Temperatura Precipitaciones Viento Presión Humedad
    00:00 +19°C° 0.6 mm 3 mps 741 mmHg 93%
    01:00 +19°C° 0.6 mm 3 mps 741 mmHg 94%
    02:00 +18°C° 0.6 mm 3 mps 741 mmHg 94%
    03:00 +18°C° 0.1 mm 2 mps 741 mmHg 94%
    04:00 +18°C° 0.1 mm 2 mps 741 mmHg 94%
    05:00 +18°C° 0.1 mm 2 mps 741 mmHg 95%
    06:00 +19°C° 0.5 mm 2 mps 741 mmHg 93%
    07:00 +20°C° 0.5 mm 2 mps 742 mmHg 92%
    08:00 +20°C° 0.5 mm 3 mps 742 mmHg 91%
    09:00 +20°C° 1.4 mm 3 mps 742 mmHg 91%
    10:00 +19°C° 1.4 mm 4 mps 743 mmHg 92%
    11:00 +19°C° 1.4 mm 4 mps 743 mmHg 93%
    12:00 +18°C° 2 mm 4 mps 743 mmHg 93%
    13:00 +17°C° 2 mm 4 mps 744 mmHg 94%
    14:00 +15°C° 2 mm 5 mps 744 mmHg 94%
    15:00 +15°C° 0.8 mm 5 mps 744 mmHg 94%
    16:00 +14°C° 0.8 mm 4 mps 744 mmHg 93%
    17:00 +14°C° 0.8 mm 4 mps 744 mmHg 92%
    18:00 +13°C° 0 mm 4 mps 745 mmHg 91%
    19:00 +13°C° 0 mm 3 mps 745 mmHg 89%
    20:00 +13°C° 0 mm 3 mps 746 mmHg 88%
    21:00 +12°C° 0.4 mm 4 mps 746 mmHg 88%
    22:00 +10°C° 0.4 mm 5 mps 747 mmHg 87%
    23:00 +9°C° 0.4 mm 5 mps 747 mmHg 87%
    Mostrar más